WESTFORD NEEDLES, 2364

Orbit data source: Space-Track

WESTFORD NEEDLES, 2364 is space debris in LEO originally from a launch on Thu, 09 May 1963 UTC launched from the Air Force Western Test Range (AFWTR). Debris objects in space refer to the collection of defunct objects orbiting the Earth. Examples of debris include non-operational satellites, rocket bodies, and fragments generated from explosions, collisions, or faulty payload assembly.

Loading next visibility...
Identifier
2364, 1963-014P
Orbit
LEO
Country
Flag of USUS
Related business
Manufacturer
Unknown
Mission
Spacecraft
Bus & Motor
Unknown
Mass
Unknown
Launch date (UTC)
1963-05-09 (62 years ago)
Launch vehicle
Unknown
Launch site
Air Force Western Test Range (AFWTR)
Object type
Payload
Rocket body
Debris
Shape & HBR
Unknown
Radar Cross Section
Medium (>0.1 m² and <1 m²)

Expand to show TLE details & history
Last TLE update: 2 days ago

TLE from 2 days ago
0 WESTFORD NEEDLES
1 02364U 63014P   25257.37436910 -.00000124  00000-0 -46962-1 0  9990
2 02364  87.5719 306.3171 0641562 325.6599  30.4321  8.67406920972056
Epoch: 2025-09-14T08:59Z
TLE epoch observation values (Epoch: 2025-09-14T08:59:05.49Z)
Latitude
Longitude
177.94993°
Altitude
3,087.86 km
Speed
6.663 km/s
True Right ascension
20h 25m 16s
True Declination
0° 00' 00"
Sunlit
Object was in daylight at epoch
Visualization orbit readout
Latitude
Unknown
Longitude
Unknown
Altitude
Unknown
Speed
Unknown
Apparent Right ascension
Unknown
Apparent Declination
Unknown
Sunlit
N/A
Visualization observer readout
Local Sidereal Time
16:22:25
Azimuth
Unknown
Elevation
Unknown
Doppler factor
Unknown
Orbital elements
Apogee altitude
4,267.295 km
Perigee altitude
2,983.705 km
Semi-major axis
10,003.637 km
Eccentricity
0.06416
Inclination
87.5719°
RAAN
306.3171°
Arg. of periapsis
325.6599°
True anomaly
34.42834°
Mean anomaly
30.4321°
Eccentric anomaly
32.40183°
Mean motion
2.16923 °/min
Orbital period
165.96 mins
BSTAR
-0.046962
Loading maneuver chart data...
Computing Atmospheric mass density...

Documentation

Showing up to 5 results
|